EW8665 Weather Reports


time (UTC)temp
C
wind
direction
speed
KPH
gust
KPH
rain 1hr
cm
rain 24hr
cm
rain mn
cm
humidity
%
barometer
mb
20260504030504 11 64 4.8 6.4 0.00 0.00 0.00 75 1014.5
20260504030007 11 66 4.8 6.4 0.00 0.00 0.00 75 1014.8
20260504025504 11 64 4.8 6.4 0.00 0.00 0.00 75 1014.7
20260504025007 11 60 4.8 9.7 0.00 0.00 0.00 75 1014.7
20260504024004 11 62 4.8 8.0 0.00 0.00 0.00 75 1014.7
20260504023504 11 68 4.8 9.7 0.00 0.00 0.00 75 1014.7
20260504023004 11 69 4.8 9.7 0.00 0.00 0.00 75 1014.9
20260504022504 11 67 4.8 9.7 0.00 0.00 0.00 75 1014.8
20260504022004 11 71 3.2 6.4 0.00 0.00 0.00 75 1014.7
20260504021004 11 73 3.2 9.7 0.00 0.00 0.00 75 1014.7
20260504020505 11 65 1.6 4.8 0.00 0.00 0.00 75 1014.6
20260504020004 11 62 1.6 4.8 0.00 0.00 0.00 75 1014.7
20260504015504 11 62 3.2 6.4 0.00 0.03 0.00 75 1014.9
20260504015004 12 67 4.8 6.4 0.00 0.03 0.00 75 1014.8
20260504014504 12 61 6.4 9.7 0.00 0.03 0.00 75 1014.9
20260504014004 12 53 4.8 9.7 0.00 0.03 0.00 74 1014.7
20260504013504 12 57 4.8 8.0 0.00 0.03 0.00 74 1014.7
20260504012004 12 59 4.8 8.0 0.00 0.03 0.00 74 1014.8
20260504011004 12 72 4.8 6.4 0.00 0.03 0.00 69 1014.7
20260504010504 12 66 4.8 9.7 0.00 0.03 0.00 69 1014.7
20260504010004 12 70 3.2 9.7 0.00 0.03 0.00 69 1014.6
20260504004504 12 57 4.8 8.0 0.00 0.03 0.00 68 1014.8
20260504004004 12 64 3.2 8.0 0.00 0.03 0.00 69 1014.8
20260504003504 12 71 4.8 9.7 0.00 0.03 0.00 70 1014.8
20260504003004 12 77 4.8 9.7 0.00 0.03 0.00 70 1014.8
20260504002504 12 90 3.2 6.4 0.00 0.03 0.00 71 1014.7
20260504001504 13 109 3.2 6.4 0.00 0.03 0.00 69 1014.9
20260503235504 13 94 3.2 6.4 0.00 0.03 0.00 70 1014.9
20260503235003 13 88 3.2 4.8 0.00 0.03 0.00 69 1014.7
20260503234503 13 86 1.6 4.8 0.00 0.03 0.00 68 1014.9
20260503234005 13 77 1.6 3.2 0.00 0.03 0.00 68 1014.8
20260503233004 13 68 3.2 6.4 0.00 0.03 0.00 69 1014.8
20260503232004 13 77 4.8 11.3 0.00 0.03 0.00 68 1014.8
20260503231504 13 79 4.8 11.3 0.00 0.03 0.00 69 1014.8
20260503231004 13 82 4.8 11.3 0.00 0.03 0.00 69 1014.7
20260503230503 13 85 3.2 6.4 0.00 0.03 0.00 69 1014.9
20260503230004 13 86 3.2 4.8 0.00 0.03 0.00 69 1014.8
20260503225004 13 76 3.2 6.4 0.00 0.03 0.00 70 1014.7
20260503224504 13 75 4.8 8.0 0.00 0.03 0.00 70 1014.6
20260503223504 13 69 4.8 8.0 0.00 0.03 0.00 71 1014.8
20260503223004 13 73 4.8 8.0 0.00 0.03 0.00 71 1014.6
20260503222504 13 65 4.8 8.0 0.00 0.03 0.00 71 1014.6
20260503222004 13 63 4.8 8.0 0.00 0.03 0.00 71 1014.7
20260503221504 13 69 3.2 6.4 0.00 0.03 0.00 71 1014.4
20260503220504 13 84 1.6 4.8 0.00 0.03 0.00 71 1014.6
20260503220004 13 81 3.2 6.4 0.00 0.03 0.00 70 1014.9
20260503215504 13 86 3.2 6.4 0.00 0.03 0.03 70 1014.6
20260503215003 13 90 3.2 6.4 0.00 0.03 0.03 71 1014.7
20260503214504 13 87 3.2 6.4 0.00 0.03 0.03 71 1014.5
20260503214004 13 82 3.2 6.4 0.00 0.03 0.03 72 1014.5
20260503213504 13 74 4.8 8.0 0.00 0.03 0.03 72 1014.5
20260503213004 13 69 4.8 8.0 0.00 0.03 0.03 72 1014.4
20260503212504 13 64 4.8 8.0 0.00 0.03 0.03 73 1014.4
20260503211505 13 55 4.8 8.0 0.00 0.03 0.03 72 1014.4
20260503211004 13 61 3.2 8.0 0.00 0.03 0.03 71 1014.6
20260503210504 14 60 3.2 6.4 0.00 0.03 0.03 71 1014.4
20260503210005 14 55 3.2 6.4 0.00 0.03 0.03 70 1014.5
20260503204504 14 60 3.2 6.4 0.00 0.03 0.03 67 1014.4
20260503204004 14 52 3.2 8.0 0.00 0.03 0.03 68 1014.2
20260503203004 14 54 4.8 9.7 0.00 0.03 0.03 69 1014.4
20260503202004 14 48 3.2 6.4 0.00 0.03 0.03 69 1014.6
20260503201504 14 47 3.2 6.4 0.00 0.03 0.03 69 1014.6
20260503200504 14 52 4.8 9.7 0.00 0.03 0.03 71 1014.7
20260503200004 14 43 4.8 9.7 0.00 0.03 0.03 71 1014.6
20260503195503 14 32 4.8 9.7 0.00 0.03 0.03 71 1014.7
20260503195004 14 25 4.8 9.7 0.00 0.03 0.03 71 1014.8
20260503194504 14 24 4.8 8.0 0.00 0.03 0.03 71 1014.8
20260503194004 14 18 4.8 8.0 0.00 0.03 0.03 71 1014.7
20260503193004 14 18 4.8 8.0 0.00 0.03 0.03 71 1014.6
20260503192504 14 21 4.8 8.0 0.00 0.03 0.03 72 1014.6
20260503192007 13 29 4.8 8.0 0.00 0.03 0.03 74 1014.6
20260503191503 14 27 6.4 8.0 0.00 0.03 0.03 74 1014.6
20260503191004 14 30 6.4 11.3 0.00 0.03 0.03 73 1014.6
20260503190504 14 33 6.4 11.3 0.00 0.03 0.03 73 1014.6
20260503185504 14 38 4.8 8.0 0.00 0.03 0.03 74 1014.6
20260503185004 14 35 4.8 9.7 0.00 0.03 0.03 74 1014.6
20260503184505 14 38 4.8 9.7 0.00 0.03 0.03 73 1014.6
20260503184004 15 36 4.8 6.4 0.00 0.03 0.03 72 1014.7
20260503183505 15 35 4.8 8.0 0.00 0.03 0.03 71 1014.7
20260503183006 15 37 6.4 11.3 0.00 0.03 0.03 70 1014.8
20260503182505 15 44 4.8 11.3 0.00 0.03 0.03 69 1014.7
20260503182006 15 47 4.8 12.9 0.00 0.03 0.03 70 1014.7
20260503181506 15 50 6.4 12.9 0.00 0.03 0.03 69 1014.8
20260503181005 15 51 6.4 12.9 0.00 0.03 0.03 69 1014.8
20260503180505 15 51 4.8 9.7 0.00 0.03 0.03 69 1015.1
20260503175505 15 40 4.8 9.7 0.00 0.03 0.03 69 1015.0
20260503175005 15 35 4.8 8.0 0.00 0.03 0.03 70 1015.0
20260503174506 15 29 4.8 8.0 0.00 0.03 0.03 70 1015.0
20260503174007 15 31 4.8 8.0 0.00 0.03 0.03 70 1015.1
20260503173505 15 33 4.8 11.3 0.00 0.03 0.03 69 1015.2
20260503172505 15 42 4.8 8.0 0.00 0.03 0.03 69 1015.1
20260503172008 15 38 4.8 9.7 0.00 0.03 0.03 69 1015.2
20260503171505 15 39 4.8 9.7 0.00 0.03 0.03 68 1015.3
20260503171006 15 35 3.2 9.7 0.00 0.03 0.03 68 1015.3
20260503170505 15 35 6.4 11.3 0.00 0.03 0.03 69 1015.3
20260503150505 20 239 9.7 16.1 0.00 0.03 0.03 39 1015.2
20260503131005 23 240 8.0 14.5 0.00 0.03 0.03 30 1014.1
20260503130505 23 252 8.0 14.5 0.00 0.03 0.03 29 1014.0
20260503090505 21 225 4.8 9.7 0.00 0.03 0.03 37 1014.5
20260503081505 20 227 6.4 12.9 0.00 0.03 0.03 39 1015.1
20260503080508 20 245 4.8 12.9 0.00 0.03 0.03 38 1015.4
20260503071505 19 261 6.4 12.9 0.00 0.03 0.03 41 1015.7
20260503071004 19 259 6.4 12.9 0.00 0.03 0.03 43 1015.5
20260503070505 19 257 6.4 12.9 0.00 0.03 0.03 45 1015.5
20260503055005 15 37 3.2 9.7 0.00 0.03 0.03 64 1015.8
20260503054508 15 68 1.6 9.7 0.00 0.03 0.03 67 1015.9
20260503053508 15 101 3.2 8.0 0.00 0.03 0.03 66 1015.6
20260503053005 15 248 3.2 8.0 0.00 0.03 0.03 66 1015.3
20260503052504 15 249 3.2 8.0 0.00 0.03 0.03 65 1015.4
20260503052005 16 240 3.2 8.0 0.00 0.03 0.03 60 1015.3
20260503051005 16 231 4.8 12.9 0.00 0.03 0.03 56 1015.4
20260503050505 16 220 4.8 12.9 0.00 0.03 0.03 57 1015.0
20260503050005 15 205 4.8 9.7 0.00 0.03 0.03 61 1015.2
20260503045504 15 182 4.8 11.3 0.00 0.03 0.03 64 1015.1
20260503044504 13 129 3.2 11.3 0.00 0.03 0.03 73 1015.2
20260503044005 13 132 1.6 4.8 0.00 0.03 0.03 75 1015.3
20260503043505 13 133 1.6 4.8 0.00 0.03 0.03 75 1015.2
20260503043005 13 116 1.6 3.2 0.00 0.03 0.03 75 1015.1
20260503042005 13 99 1.6 6.4 0.00 0.03 0.03 73 1014.8
20260503041505 13 94 3.2 8.0 0.00 0.03 0.03 70 1015.0
20260503040505 13 83 4.8 11.3 0.00 0.03 0.03 70 1015.0
20260503035505 13 79 6.4 9.7 0.00 0.03 0.03 73 1014.8
20260503035005 13 72 4.8 9.7 0.00 0.03 0.03 75 1014.8
20260503034005 12 67 4.8 8.0 0.00 0.03 0.03 78 1015.0
20260503033004 12 73 3.2 6.4 0.00 0.03 0.03 80 1015.1
20260503032005 12 84 1.6 6.4 0.00 0.03 0.03 80 1015.2
20260503031505 12 93 3.2 6.4 0.00 0.03 0.03 80 1015.1